Willow Creek (Jasper National Park), Alberta

Past 24 Hour Conditions

This table is a summary of hourly weather conditions for the past 24 hours. This summary includes the following parameters: temperature, humidity, dew point, wind speed and direction, air pressure, visibility and/or wind chill and humidex.
Date / Time
(MDT)
Conditions Temp (°C) Humidity (%) Dew Point (°C) Wind (km/h) Pressure (kPa) Vis (km) Wind Chill
24 April 2014
8:00 N/A -9   91 -10 ENE 2 100.9 N/A -10
7:00 N/A -9   93 -10 calm 100.9 N/A *
6:00 N/A -9   91 -10 NNW 2 100.9 N/A -10
5:00 N/A -8 90 -10 NNE 2 100.9 N/A -9
4:00 N/A -7 86 -9 calm 100.9 N/A *
3:00 N/A -6 84 -8 NNW 2 100.8 N/A -7
2:00 N/A -5 78 -8 S 2 100.8 N/A -5
1:00 N/A -4 73 -8 calm 100.8 N/A *
00:00 N/A -3 74 -8 calm 100.8 N/A *
23 April 2014
23:00 N/A -2 64 -7 ESE 4 100.7 N/A -3
22:00 N/A 1 57 -7 calm 100.7 N/A *
21:00 N/A 2 43 -9 E 3 100.6 N/A *
20:00 N/A 4   35 -10 W 6 100.6 N/A *
19:00 N/A 4   35 -10 WSW 7 100.6 N/A *
18:00 N/A 4   37 -9 W 17 100.6 N/A *
17:00 N/A 4   42 -8 SW 6 100.6 N/A *
16:00 N/A 3 41 -9 SSW 12 100.6 N/A *
15:00 N/A 3 38 -10 SSW 9 100.5 N/A *
14:00 N/A 3 39 -9 W 8 100.4 N/A *
13:00 N/A 4   40 -9 S 9 100.3 N/A *
12:00 N/A 3 43 -8 SSW 6 100.4 N/A *
11:00 N/A 3 44 -8 WSW 5 100.3 N/A *
10:00 N/A 3 52 -6 S 7 100.2 N/A *
9:00 N/A 1 86 -2 SSE 4 100.3 N/A *
8:00 N/A -1 94 -2 calm 100.3 N/A *
N/A
Not available
 ↑ 
Highest temperature
 ↓ 
Lowest temperature
*
Value not significant.

If you require additional historical weather information, please visit Climate Data Online.